Regional Weather Roundup
Issued by NWS

Home | Current Version | Previous Version | Text Only | Print | Product List | Glossary On
Versions: 1 2 3 4 5 6 7 8 9 10 11 12 13 14 15 16 17 18 19 20 21 22 23 24 25 26 27 28 29 30 31 32 33 34 35 36 37 38 39 40 41 42 43 44 45 46 47 48 49 50
000
ASUS43 KMPX 270310
RWRMN
WEATHER ROUNDUP FOR MINNESOTA
NATIONAL WEATHER SERVICE TWIN CITIES/CHANHASSEN MN
1000 PM CDT THU MAY 26 2016


NOTE: "FAIR" INDICATES FEW OR NO CLOUDS BELOW 12,000 FEET WITH NO
SIGNIFICANT WEATHER AND/OR OBSTRUCTIONS TO VISIBILITY. N/A MEANS
CURRENT SKY AND/OR WEATHER CONDITIONS ARE NOT AVAILABLE.

MNZ060>063-068>070-270400-
   Twin Cities Metro

CITY           SKY/WX    TMP DP  RH WIND       PRES   REMARKS
TWIN CITIES    CLOUDY    76  51  41 S5        29.82F
ST PAUL        CLOUDY    68  59  73 S5        29.82F
CRYSTAL        CLOUDY    68  55  63 CALM      29.80F
BLAINE         CLOUDY    70  55  60 CALM      29.82S
EDEN PRAIRIE   CLOUDY    74  53  48 SE3       29.81F
SOUTH ST PAUL  CLOUDY    72  54  53 CALM      29.82F
LAKE ELMO      FAIR      64  59  82 CALM      29.84F
$$
MNZ001>005-007-008-013>017-022>024-027-028-270400-
   Northwest Minnesota

CITY           SKY/WX    TMP DP  RH WIND       PRES   REMARKS
BEMIDJI        CLEAR     62  51  68 S5        29.81S
HALLOCK        CLOUDY    61  57  88 SW3       29.78R
ROSEAU         CLEAR     61  55  82 SW6       29.77R
WARROAD        PTCLDY    63  55  77 SW7       29.77R
THIEF RVR FALL CLEAR     61  52  72 W6        29.80S
CROOKSTON      CLEAR     61  55  82 NW6       29.79F
FOSSTON        CLEAR     57  52  82 CALM      29.80F
DETROIT LAKES  PTCLDY    64  54  68 E3        29.81S
MOORHEAD       CLOUDY    66  57  72 E5        29.77S
PARK RAPIDS    PTCLDY    65  52  62 E5        29.81F
MAHNOMEN       MOCLDY    63  54  73 E5        29.78F
$$
MNZ006-009>011-018-025>026-270400-
   North Central Minnesota

CITY           SKY/WX    TMP DP  RH WIND       PRES   REMARKS
BAUDETTE       CLEAR     61  52  72 SW7       29.76R
FLAG ISLAND    PTCLDY    63  55  77 S12       29.74R
INTL FALLS     CLEAR     62  53  72 SW5       29.77R
WASKISH        CLEAR     61  54  77 CALM      29.79S
BIG FORK       PTCLDY    57  52  82 CALM      29.81S
LONGVILLE      CLEAR     55  52  88 CALM      29.83F
GRAND RAPIDS   CLEAR     64  50  60 SE5       29.84S
CRANE LAKE     MOCLDY    54  54 100 CALM      29.80S FOG
ORR            PTCLDY    63  54  72 CALM      29.77S
COOK           PTCLDY    61  54  77 CALM      29.80S
WALKER         FAIR      60  52  75 CALM      29.82S
$$
MNZ012-019>021-037-270400-
   Northeast Minnesota

CITY           SKY/WX    TMP DP  RH WIND       PRES   REMARKS
DULUTH         CLOUDY    51  49  92 CALM      29.83F
ELY            PTCLDY    64  54  68 S3        29.81S
HIBBING        PTCLDY    59  51  75 CALM      29.80F
EVELETH        CLOUDY    63  55  77 SW5       29.82F
DULUTH HARBOR  FOG       46  46 100 CALM      29.85S VSB 1/4
TWO HARBORS    HAZE      54  48  82 CALM      29.82S VSB 1/2
SILVER BAY     CLOUDY    54  52  94 CALM      29.82S VSB 1/4
GRAND MARAIS     N/A     47  46  97 CALM      29.84S
G MARAIS ARPRT FOG       50  46  87 CALM      29.85F VSB<1/4
$$
MNZ029>031-032-039>041-046>048-054>057-064-270400-
   West Central Minnesota

CITY           SKY/WX    TMP DP  RH WIND       PRES   REMARKS
FERGUS FALLS   CLEAR     66  52  59 NE5       29.74S
WHEATON        PTCLDY    70  52  52 S5        29.78S
MORRIS         CLOUDY    68  46  45 CALM      29.77F
ALEXANDRIA     MOCLDY    67  49  52 E6        29.80F
ELBOW LAKE     FAIR      69  51  52 SE6       29.77F
WADENA         PTCLDY    63  52  67 E6        29.80F
GLENWOOD       CLOUDY    70  48  46 CALM      29.81S
APPLETON       CLOUDY    64  52  63 CALM      29.77F
ORTONVILLE     CLOUDY    66  52  59 CALM      29.77F
MADISON        CLOUDY    70  46  43 CALM      29.78R
WILLMAR        FAIR      70  54  56 E5        29.80F
$$
MNZ033>034-036-042>043-049>051-058-059-270400-
   Central Minnesota

CITY           SKY/WX    TMP DP  RH WIND       PRES   REMARKS
ST CLOUD       PTCLDY    64  55  72 E3        29.80F
SAUK CENTRE    FAIR      63  53  68 E3        29.79F
PAYNESVILLE    CLOUDY    66  54  65 CALM      29.81S
AITKIN         PTCLDY    57  52  82 CALM      29.81F
PINE RIVER     CLEAR     57  54  88 CALM      29.86F
BRAINERD       CLOUDY    59  53  80 CALM      29.82F
STAPLES        PTCLDY    64  52  63 CALM      29.81F
LONG PRAIRIE   FAIR      63  54  72 CALM      29.80F
LITTLE FALLS   PTCLDY    59  52  77 CALM      29.81F
LITCHFIELD     CLOUDY    72  54  53 CALM      29.82R
BUFFALO        MOCLDY    69  53  56 SE3       29.81F
MAPLE LAKE     CLOUDY    69  57  64 CALM      29.81F
HUTCHINSON     CLEAR     70  57  63 SE3       29.83R
$$
MNZ037-044-045-052-053-270400-
   East Central Minnesota

CITY           SKY/WX    TMP DP  RH WIND       PRES   REMARKS
PRINCETON      PTCLDY    66  55  68 CALM      29.83R
MORA           PTCLDY    59  50  72 CALM      29.84F
CAMBRIDGE      CLOUDY    66  54  63 CALM      29.81S
RUSH CITY      CLOUDY    61  55  80 CALM      29.83S
MOOSE LAKE     CLOUDY    57  48  72 CALM      29.81F
HINCKLEY       FAIR      59  55  88 CALM      29.82F
CLOQUET        CLOUDY    52  48  87 CALM      29.84R
MCGREGOR       CLOUDY    64  50  59 W3        29.84S
$$
MNZ071>073-080-081-089-090-097-098-270400-
   Southwest Minnesota

CITY           SKY/WX    TMP DP  RH WIND       PRES   REMARKS
MONTEVIDEO     CLOUDY    68  48  49 CALM      29.80S
GRANITE FALLS  CLOUDY    73  50  44 CALM      29.80S
CANBY          CLOUDY    68  56  64 CALM      29.79S
MARSHALL       MOCLDY    69  51  52 NE7       29.77F
REDWOOD FALLS  CLOUDY    71  52  50 S6        29.78F
OLIVIA         CLOUDY    61  45  55 S5        29.80S
PIPESTONE      PTCLDY    68  54  60 SE3       29.80F
WINDOM         CLOUDY    66  57  72 CALM      29.81F
WORTHINGTON    CLOUDY    69  58  67 S9        29.81F
JACKSON        CLOUDY    68  54  60 S7        29.83S
TRACY          MOCLDY    68  54  60 S5        29.80F
SLAYTON        CLOUDY    66  53  62 SE6       29.81F
$$
MNZ065>067-074>077-082>085-091>093-270400-
   South Central Minnesota

CITY           SKY/WX    TMP DP  RH WIND       PRES   REMARKS
MANKATO        CLOUDY    70  54  56 E3        29.81S
NEW ULM        CLOUDY    66  55  68 SE7       29.81R
ST JAMES       CLOUDY    64  55  72 CALM      29.81S
FAIRMONT       CLOUDY    70  52  52 SE8       29.83R
GLENCOE        CLOUDY    72  59  64 CALM      29.80F
FARIBAULT      CLOUDY    68  57  68 NE3       29.82F
OWATONNA       CLOUDY    66  57  72 SE7       29.84R
WASECA         CLOUDY    64  55  72 SE7       29.85R
ALBERT LEA     CLOUDY    70  57  64 E5        29.85R
$$
MNZ078>079-086>088-094>096-270400-
   Southeast Minnesota

CITY           SKY/WX    TMP DP  RH WIND       PRES   REMARKS
ROCHESTER      CLOUDY    67  61  81 S9        29.87R
RED WING       MOCLDY    64  61  88 N1        29.81F
STANTON        CLOUDY    67  59  75 E3        29.81F
DODGE CENTER   CLOUDY    66  57  72 SE6       29.86R
WINONA         CLOUDY    70  63  78 SE3       29.86R
AUSTIN         CLOUDY    70  57  64 SE3       29.85F
PRESTON        CLOUDY    66  58  76 S3        29.88R
$$
ABBREVIATIONS USED IN REMARKS
   TC - TEMPERATURES IN CELSIUS
  WCI - WIND CHILL INDEX
   HX - HEAT INDEX
  VSB - VISIBILITY
$$




USA.gov is the U.S. government's official web portal to all federal, state and local government web resources and services.